This is the latest recevied weather packets stored in our database for station/object W4EDL-13. If no packets are shown the sender has not sent any weather packets the latest 10 day(s).
| Time | Temp. | Humidity | Pressure | Rain* | Wind** | Luminosity | Snow |
|---|---|---|---|---|---|---|---|
| 1778004550 | 30° C | 42% | 1007.6 hPa | - | - | - | - |
| 1778003950 | 30.56° C | 41% | 1008 hPa | - | - | - | - |
| 1778003349 | 31.67° C | 41% | 1008 hPa | - | - | - | - |
| 1778002748 | 30° C | 40% | 1007.6 hPa | - | - | - | - |
| 1778002148 | 30.56° C | 42% | 1008 hPa | - | - | - | - |
| 1778001547 | 30.56° C | 43% | 1008.3 hPa | - | - | - | - |
| 1778000946 | 30° C | 44% | 1008 hPa | - | - | - | - |
| 1778000346 | 31.11° C | 40% | 1008 hPa | - | - | - | - |
| 1777999745 | 31.11° C | 42% | 1008 hPa | - | - | - | - |
| 1777999145 | 30° C | 43% | 1008 hPa | - | - | - | - |
| 1777998544 | 29.44° C | 44% | 1008 hPa | - | - | - | - |
| 1777997944 | 29.44° C | 44% | 1008 hPa | - | - | - | - |
| 1777997343 | 28.89° C | 44% | 1008 hPa | - | - | - | - |
| 1777996742 | 29.44° C | 46% | 1008 hPa | - | - | - | - |
| 1777996142 | 28.89° C | 44% | 1008 hPa | - | - | - | - |
| 1777995542 | 28.89° C | 45% | 1007.6 hPa | - | - | - | - |
| 1777995541 | 28.89° C | 45% | 1007.6 hPa | - | - | - | - |
| 1777994940 | 28.89° C | 50% | 1008 hPa | - | - | - | - |
| 1777994340 | 29.44° C | 46% | 1008 hPa | - | - | - | - |
| 1777993739 | 27.78° C | 51% | 1007.6 hPa | - | - | - | - |
| 1777993138 | 28.89° C | 50% | 1007.6 hPa | - | - | - | - |
| 1777992538 | 27.22° C | 54% | 1007.6 hPa | - | - | - | - |
| 1777991937 | 27.78° C | 51% | 1007.6 hPa | - | - | - | - |
| 1777991337 | 27.78° C | 50% | 1007.3 hPa | - | - | - | - |
| 1777990736 | 28.33° C | 50% | 1007.3 hPa | - | - | - | - |
* Rain since midnight (hover to see other rain measurements)
** Current wind speed in m/s (hover to see current wind gust speed)